Year,Month,Day,Hour,Minute,Value (Times are PST for temperature in C)
2011,08,16,00,00,14.80
2011,08,16,00,01,14.70
2011,08,16,00,02,14.70
2011,08,16,00,03,14.70
2011,08,16,00,04,14.70
2011,08,16,00,05,14.70
2011,08,16,00,06,14.70
2011,08,16,00,07,14.70
2011,08,16,00,08,14.70
2011,08,16,00,09,14.70
2011,08,16,00,10,14.70
2011,08,16,00,11,14.70
2011,08,16,00,12,14.70
2011,08,16,00,13,14.70
2011,08,16,00,14,14.80
2011,08,16,00,15,14.80
2011,08,16,00,16,14.70
2011,08,16,00,17,14.70
2011,08,16,00,18,14.70
2011,08,16,00,19,14.70
2011,08,16,00,20,14.70
2011,08,16,00,21,14.70
2011,08,16,00,22,14.70
2011,08,16,00,23,14.70
2011,08,16,00,24,14.70
2011,08,16,00,25,14.70
2011,08,16,00,26,14.70
2011,08,16,00,27,14.70
2011,08,16,00,28,14.70
2011,08,16,00,29,14.70
2011,08,16,00,30,14.70
2011,08,16,00,31,14.70
2011,08,16,00,32,14.70
2011,08,16,00,33,14.70
2011,08,16,00,34,14.70
2011,08,16,00,35,14.70
2011,08,16,00,36,14.60
2011,08,16,00,37,14.60
2011,08,16,00,38,14.60
2011,08,16,00,39,14.60
2011,08,16,00,40,14.50
2011,08,16,00,41,14.50
2011,08,16,00,42,14.50
2011,08,16,00,43,14.40
2011,08,16,00,44,14.40
2011,08,16,00,45,14.40
2011,08,16,00,46,14.30
2011,08,16,00,47,14.30
2011,08,16,00,48,14.30
2011,08,16,00,49,14.20
2011,08,16,00,50,14.20
2011,08,16,00,51,14.20
2011,08,16,00,52,14.10
2011,08,16,00,53,14.00
2011,08,16,00,54,14.00
2011,08,16,00,55,13.90
2011,08,16,00,56,13.90
2011,08,16,00,57,13.80
2011,08,16,00,58,13.80
2011,08,16,00,59,13.70
2011,08,16,01,00,13.70
2011,08,16,01,01,13.70
2011,08,16,01,02,13.70
2011,08,16,01,03,13.60
2011,08,16,01,04,13.60
2011,08,16,01,05,13.50
2011,08,16,01,06,13.50
2011,08,16,01,07,13.50
2011,08,16,01,08,13.40
2011,08,16,01,09,13.40
2011,08,16,01,10,13.30
2011,08,16,01,11,13.30
2011,08,16,01,12,13.20
2011,08,16,01,13,13.20
2011,08,16,01,14,13.10
2011,08,16,01,15,13.10
2011,08,16,01,16,13.00
2011,08,16,01,17,12.90
2011,08,16,01,18,12.90
2011,08,16,01,19,12.80
2011,08,16,01,20,12.80
2011,08,16,01,21,12.80
2011,08,16,01,22,12.70
2011,08,16,01,23,12.70
2011,08,16,01,24,12.60
2011,08,16,01,25,12.60
2011,08,16,01,26,12.50
2011,08,16,01,27,12.50
2011,08,16,01,28,12.40
2011,08,16,01,29,12.40
2011,08,16,01,30,12.40
2011,08,16,01,31,12.30
2011,08,16,01,32,12.30
2011,08,16,01,33,12.30
2011,08,16,01,34,12.20
2011,08,16,01,35,12.10
2011,08,16,01,36,12.10
2011,08,16,01,37,12.00
2011,08,16,01,38,12.00
2011,08,16,01,39,12.00
2011,08,16,01,40,11.90
2011,08,16,01,41,11.90
2011,08,16,01,42,11.90
2011,08,16,01,43,11.80
2011,08,16,01,44,11.80
2011,08,16,01,45,11.80
2011,08,16,01,46,11.80
2011,08,16,01,47,11.80
2011,08,16,01,48,11.80
2011,08,16,01,49,11.70
2011,08,16,01,50,11.70
2011,08,16,01,51,11.70
2011,08,16,01,52,11.70
2011,08,16,01,53,11.60
2011,08,16,01,54,11.60
2011,08,16,01,55,11.60
2011,08,16,01,56,11.60
2011,08,16,01,57,11.60
2011,08,16,01,58,11.60
2011,08,16,01,59,11.60
2011,08,16,02,00,11.60
2011,08,16,02,01,11.60
2011,08,16,02,02,11.60
2011,08,16,02,03,11.60
2011,08,16,02,04,11.60
2011,08,16,02,05,11.40
2011,08,16,02,06,11.40
2011,08,16,02,07,11.40
2011,08,16,02,08,11.40
2011,08,16,02,09,11.40
2011,08,16,02,10,11.40
2011,08,16,02,11,11.30
2011,08,16,02,12,11.30
2011,08,16,02,13,11.30
2011,08,16,02,14,11.30
2011,08,16,02,15,11.20
2011,08,16,02,16,11.20
2011,08,16,02,17,11.20
2011,08,16,02,18,11.20
2011,08,16,02,19,11.20
2011,08,16,02,20,11.20
2011,08,16,02,21,11.20
2011,08,16,02,22,11.10
2011,08,16,02,23,11.10
2011,08,16,02,24,11.10
2011,08,16,02,25,11.10
2011,08,16,02,26,11.10
2011,08,16,02,27,11.10
2011,08,16,02,28,11.10
2011,08,16,02,29,11.10
2011,08,16,02,30,10.90
2011,08,16,02,31,10.90
2011,08,16,02,32,10.90
2011,08,16,02,33,10.90
2011,08,16,02,34,10.90
2011,08,16,02,35,10.90
2011,08,16,02,36,10.80
2011,08,16,02,37,10.80
2011,08,16,02,38,10.80
2011,08,16,02,39,10.80
2011,08,16,02,40,10.70
2011,08,16,02,41,10.70
2011,08,16,02,42,10.70
2011,08,16,02,43,10.60
2011,08,16,02,44,10.60
2011,08,16,02,45,10.60
2011,08,16,02,46,10.60
2011,08,16,02,47,10.60
2011,08,16,02,48,10.60
2011,08,16,02,49,10.60
2011,08,16,02,50,10.60
2011,08,16,02,51,10.40
2011,08,16,02,52,10.40
2011,08,16,02,53,10.40
2011,08,16,02,54,10.40
2011,08,16,02,55,10.40
2011,08,16,02,56,10.40
2011,08,16,02,57,10.40
2011,08,16,02,58,10.40
2011,08,16,02,59,10.40
2011,08,16,03,00,10.30
2011,08,16,03,01,10.30
2011,08,16,03,02,10.30
2011,08,16,03,03,10.30
2011,08,16,03,04,10.20
2011,08,16,03,05,10.20
2011,08,16,03,06,10.20
2011,08,16,03,07,10.20
2011,08,16,03,08,10.20
2011,08,16,03,09,10.20
2011,08,16,03,10,10.20
2011,08,16,03,11,10.10
2011,08,16,03,12,10.10
2011,08,16,03,13,10.10
2011,08,16,03,14,10.10
2011,08,16,03,15,10.10
2011,08,16,03,16,10.10
2011,08,16,03,17,10.10
2011,08,16,03,18,10.10
2011,08,16,03,19,10.10
2011,08,16,03,20,10.10
2011,08,16,03,21,10.10
2011,08,16,03,22,10.10
2011,08,16,03,23,10.10
2011,08,16,03,24,10.10
2011,08,16,03,25,10.10
2011,08,16,03,26,10.10
2011,08,16,03,27,10.10
2011,08,16,03,28,10.10
2011,08,16,03,29,10.10
2011,08,16,03,30,10.10
2011,08,16,03,31,10.10
2011,08,16,03,32,10.10
2011,08,16,03,33,10.10
2011,08,16,03,34,10.10
2011,08,16,03,35,10.10
2011,08,16,03,36,10.10
2011,08,16,03,37,10.10
2011,08,16,03,38,10.00
2011,08,16,03,39,9.90
2011,08,16,03,40,9.90
2011,08,16,03,41,9.90
2011,08,16,03,42,9.90
2011,08,16,03,43,9.90
2011,08,16,03,44,9.90
2011,08,16,03,45,9.90
2011,08,16,03,46,9.90
2011,08,16,03,47,9.90
2011,08,16,03,48,9.90
2011,08,16,03,49,9.90
2011,08,16,03,50,9.90
2011,08,16,03,51,9.90
2011,08,16,03,52,9.90
2011,08,16,03,53,9.90
2011,08,16,03,54,9.90
2011,08,16,03,55,9.90
2011,08,16,03,56,9.90
2011,08,16,03,57,9.90
2011,08,16,03,58,9.90
2011,08,16,03,59,9.90
2011,08,16,04,00,9.90
2011,08,16,04,01,9.80
2011,08,16,04,02,9.80
2011,08,16,04,03,9.80
2011,08,16,04,04,9.80
2011,08,16,04,05,9.70
2011,08,16,04,06,9.70
2011,08,16,04,07,9.70
2011,08,16,04,08,9.70
2011,08,16,04,09,9.70
2011,08,16,04,10,9.70
2011,08,16,04,11,9.70
2011,08,16,04,12,9.70
2011,08,16,04,13,9.70
2011,08,16,04,14,9.70
2011,08,16,04,15,9.70
2011,08,16,04,16,9.70
2011,08,16,04,17,9.70
2011,08,16,04,18,9.70
2011,08,16,04,19,9.70
2011,08,16,04,20,9.60
2011,08,16,04,21,9.60
2011,08,16,04,22,9.60
2011,08,16,04,23,9.60
2011,08,16,04,24,9.60
2011,08,16,04,25,9.50
2011,08,16,04,26,9.50
2011,08,16,04,27,9.50
2011,08,16,04,28,9.50
2011,08,16,04,29,9.50
2011,08,16,04,30,9.50
2011,08,16,04,31,9.50
2011,08,16,04,32,9.40
2011,08,16,04,33,9.40
2011,08,16,04,34,9.40
2011,08,16,04,35,9.40
2011,08,16,04,36,9.40
2011,08,16,04,37,9.40
2011,08,16,04,38,9.40
2011,08,16,04,39,9.30
2011,08,16,04,40,9.30
2011,08,16,04,41,9.30
2011,08,16,04,42,9.30
2011,08,16,04,43,9.30
2011,08,16,04,44,9.20
2011,08,16,04,45,9.20
2011,08,16,04,46,9.20
2011,08,16,04,47,9.20
2011,08,16,04,48,9.20
2011,08,16,04,49,9.20
2011,08,16,04,50,9.20
2011,08,16,04,51,9.10
2011,08,16,04,52,9.10
2011,08,16,04,53,9.10
2011,08,16,04,54,9.10
2011,08,16,04,55,9.00
2011,08,16,04,56,9.00
2011,08,16,04,57,9.00
2011,08,16,04,58,9.00
2011,08,16,04,59,9.00
2011,08,16,05,00,9.00
2011,08,16,05,01,9.00
2011,08,16,05,02,9.00
2011,08,16,05,03,9.00
2011,08,16,05,04,9.00
2011,08,16,05,05,9.00
2011,08,16,05,06,8.90
2011,08,16,05,07,8.90
2011,08,16,05,08,8.90
2011,08,16,05,09,8.90
2011,08,16,05,10,8.90
2011,08,16,05,11,8.80
2011,08,16,05,12,8.80
2011,08,16,05,13,8.80
2011,08,16,05,14,8.80
2011,08,16,05,15,8.80
2011,08,16,05,16,8.70
2011,08,16,05,17,8.70
2011,08,16,05,18,8.70
2011,08,16,05,19,8.70
2011,08,16,05,20,8.70
2011,08,16,05,21,8.70
2011,08,16,05,22,8.70
2011,08,16,05,23,8.70
2011,08,16,05,24,8.70
2011,08,16,05,25,8.70
2011,08,16,05,26,8.70
2011,08,16,05,27,8.70
2011,08,16,05,28,8.70
2011,08,16,05,29,8.60
2011,08,16,05,30,8.60
2011,08,16,05,31,8.60
2011,08,16,05,32,8.60
2011,08,16,05,33,8.60
2011,08,16,05,34,8.60
2011,08,16,05,35,8.60
2011,08,16,05,36,8.50
2011,08,16,05,37,8.50
2011,08,16,05,38,8.50
2011,08,16,05,39,8.50
2011,08,16,05,40,8.50
2011,08,16,05,41,8.50
2011,08,16,05,42,8.50
2011,08,16,05,43,8.50
2011,08,16,05,44,8.50
2011,08,16,05,45,8.50
2011,08,16,05,46,8.50
2011,08,16,05,47,8.50
2011,08,16,05,48,8.50
2011,08,16,05,49,8.50
2011,08,16,05,50,8.50
2011,08,16,05,51,8.50
2011,08,16,05,52,8.50
2011,08,16,05,53,8.40
2011,08,16,05,54,8.40
2011,08,16,05,55,8.40
2011,08,16,05,56,8.40
2011,08,16,05,57,8.50
2011,08,16,05,58,8.50
2011,08,16,05,59,8.50
2011,08,16,06,00,8.50
2011,08,16,06,01,8.40
2011,08,16,06,02,8.40
2011,08,16,06,03,8.40
2011,08,16,06,04,8.40
2011,08,16,06,05,8.40
2011,08,16,06,06,8.40
2011,08,16,06,07,8.40
2011,08,16,06,08,8.30
2011,08,16,06,09,8.30
2011,08,16,06,10,8.30
2011,08,16,06,11,8.30
2011,08,16,06,12,8.30
2011,08,16,06,13,8.30
2011,08,16,06,14,8.20
2011,08,16,06,15,8.20
2011,08,16,06,16,8.20
2011,08,16,06,17,8.20
2011,08,16,06,18,8.20
2011,08,16,06,19,8.20
2011,08,16,06,20,8.20
2011,08,16,06,21,8.20
2011,08,16,06,22,8.20
2011,08,16,06,23,8.20
2011,08,16,06,24,8.20
2011,08,16,06,25,8.20
2011,08,16,06,26,8.20
2011,08,16,06,27,8.20
2011,08,16,06,28,8.20
2011,08,16,06,29,8.20
2011,08,16,06,30,8.30
2011,08,16,06,31,8.30
2011,08,16,06,32,8.30
2011,08,16,06,33,8.30
2011,08,16,06,34,8.30
2011,08,16,06,35,8.30
2011,08,16,06,36,8.30
2011,08,16,06,37,8.30
2011,08,16,06,38,8.20
2011,08,16,06,39,8.20
2011,08,16,06,40,8.20
2011,08,16,06,41,8.30
2011,08,16,06,42,8.30
2011,08,16,06,43,8.30
2011,08,16,06,44,8.30
2011,08,16,06,45,8.30
2011,08,16,06,46,8.40
2011,08,16,06,47,8.40
2011,08,16,06,48,8.40
2011,08,16,06,49,8.50
2011,08,16,06,50,8.50
2011,08,16,06,51,8.50
2011,08,16,06,52,8.60
2011,08,16,06,53,8.60
2011,08,16,06,54,8.70
2011,08,16,06,55,8.70
2011,08,16,06,56,8.70
2011,08,16,06,57,8.70
2011,08,16,06,58,8.80
2011,08,16,06,59,8.90
2011,08,16,07,00,8.90
2011,08,16,07,01,9.00
2011,08,16,07,02,9.00
2011,08,16,07,03,9.10
2011,08,16,07,04,9.20
2011,08,16,07,05,9.20
2011,08,16,07,06,9.30
2011,08,16,07,07,9.40
2011,08,16,07,08,9.50
2011,08,16,07,09,9.60
2011,08,16,07,10,9.70
2011,08,16,07,11,9.70
2011,08,16,07,12,9.80
2011,08,16,07,13,9.90
2011,08,16,07,14,10.00
2011,08,16,07,15,10.10
2011,08,16,07,16,10.20
2011,08,16,07,17,10.30
2011,08,16,07,18,10.30
2011,08,16,07,19,10.40
2011,08,16,07,20,10.50
2011,08,16,07,21,10.60
2011,08,16,07,22,10.60
2011,08,16,07,23,10.70
2011,08,16,07,24,10.80
2011,08,16,07,25,10.90
2011,08,16,07,26,11.00
2011,08,16,07,27,11.10
2011,08,16,07,28,11.10
2011,08,16,07,29,11.20
2011,08,16,07,30,11.40
2011,08,16,07,31,11.40
2011,08,16,07,32,11.60
2011,08,16,07,33,11.60
2011,08,16,07,34,11.70
2011,08,16,07,35,11.80
2011,08,16,07,36,11.80
2011,08,16,07,37,11.90
2011,08,16,07,38,12.00
2011,08,16,07,39,12.10
2011,08,16,07,40,12.20
2011,08,16,07,41,12.30
2011,08,16,07,42,12.30
2011,08,16,07,43,12.40
2011,08,16,07,44,12.50
2011,08,16,07,45,12.60
2011,08,16,07,46,12.70
2011,08,16,07,47,12.80
2011,08,16,07,48,12.80
2011,08,16,07,49,12.90
2011,08,16,07,50,13.00
2011,08,16,07,51,13.10
2011,08,16,07,52,13.10
2011,08,16,07,53,13.20
2011,08,16,07,54,13.30
2011,08,16,07,55,13.40
2011,08,16,07,56,13.50
2011,08,16,07,57,13.60
2011,08,16,07,58,13.60
2011,08,16,07,59,13.70
2011,08,16,08,00,13.80
2011,08,16,08,01,13.90
2011,08,16,08,02,13.90
2011,08,16,08,03,14.00
2011,08,16,08,04,14.10
2011,08,16,08,05,14.20
2011,08,16,08,06,14.20
2011,08,16,08,07,14.30
2011,08,16,08,08,14.50
2011,08,16,08,09,14.50
2011,08,16,08,10,14.60
2011,08,16,08,11,14.70
2011,08,16,08,12,14.80
2011,08,16,08,13,14.80
2011,08,16,08,14,14.90
2011,08,16,08,15,14.90
2011,08,16,08,16,15.00
2011,08,16,08,17,15.00
2011,08,16,08,18,15.10
2011,08,16,08,19,15.10
2011,08,16,08,20,15.20
2011,08,16,08,21,15.30
2011,08,16,08,22,15.40
2011,08,16,08,23,15.50
2011,08,16,08,24,15.50
2011,08,16,08,25,15.60
2011,08,16,08,26,15.70
2011,08,16,08,27,15.80
2011,08,16,08,28,15.80
2011,08,16,08,29,15.90
2011,08,16,08,30,16.00
2011,08,16,08,31,16.10
2011,08,16,08,32,16.20
2011,08,16,08,33,16.30
2011,08,16,08,34,16.40
2011,08,16,08,35,16.60
2011,08,16,08,36,16.70
2011,08,16,08,37,16.80
2011,08,16,08,38,16.80
2011,08,16,08,39,16.70
2011,08,16,08,40,16.70
2011,08,16,08,41,16.70
2011,08,16,08,42,16.60
2011,08,16,08,43,16.50
2011,08,16,08,44,16.40
2011,08,16,08,45,16.30
2011,08,16,08,46,16.20
2011,08,16,08,47,16.10
2011,08,16,08,48,16.10
2011,08,16,08,49,16.00
2011,08,16,08,50,15.90
2011,08,16,08,51,15.80
2011,08,16,08,52,15.80
2011,08,16,08,53,15.80
2011,08,16,08,54,15.80
2011,08,16,08,55,15.80
2011,08,16,08,56,15.90
2011,08,16,08,57,15.90
2011,08,16,08,58,15.90
2011,08,16,08,59,15.80
2011,08,16,09,00,15.80
2011,08,16,09,01,15.80
2011,08,16,09,02,15.80
2011,08,16,09,03,15.80
2011,08,16,09,04,15.80
2011,08,16,09,05,15.90
2011,08,16,09,06,16.00
2011,08,16,09,07,16.10
2011,08,16,09,08,16.20
2011,08,16,09,09,16.20
2011,08,16,09,10,16.20
2011,08,16,09,11,16.20
2011,08,16,09,12,16.20
2011,08,16,09,13,16.10
2011,08,16,09,14,16.00
2011,08,16,09,15,15.90
2011,08,16,09,16,15.90
2011,08,16,09,17,15.90
2011,08,16,09,18,16.10
2011,08,16,09,19,16.10
2011,08,16,09,20,16.20
2011,08,16,09,21,16.30
2011,08,16,09,22,16.40
2011,08,16,09,23,16.40
2011,08,16,09,24,16.40
2011,08,16,09,25,16.40
2011,08,16,09,26,16.40
2011,08,16,09,27,16.40
2011,08,16,09,28,16.40
2011,08,16,09,29,16.50
2011,08,16,09,30,16.60
2011,08,16,09,31,16.60
2011,08,16,09,32,16.70
2011,08,16,09,33,16.70
2011,08,16,09,34,16.70
2011,08,16,09,35,16.70
2011,08,16,09,36,16.70
2011,08,16,09,37,16.60
2011,08,16,09,38,16.70
2011,08,16,09,39,16.70
2011,08,16,09,40,16.70
2011,08,16,09,41,16.80
2011,08,16,09,42,16.90
2011,08,16,09,43,16.90
2011,08,16,09,44,16.90
2011,08,16,09,45,16.70
2011,08,16,09,46,16.60
2011,08,16,09,47,16.50
2011,08,16,09,48,16.40
2011,08,16,09,49,16.60
2011,08,16,09,50,16.60
2011,08,16,09,51,16.60
2011,08,16,09,52,16.60
2011,08,16,09,53,16.60
2011,08,16,09,54,16.50
2011,08,16,09,55,16.40
2011,08,16,09,56,16.50
2011,08,16,09,57,16.60
2011,08,16,09,58,16.70
2011,08,16,09,59,16.80
2011,08,16,10,00,16.90
2011,08,16,10,01,17.10
2011,08,16,10,02,17.30
2011,08,16,10,03,17.40
2011,08,16,10,04,17.60
2011,08,16,10,05,17.70
2011,08,16,10,06,17.90
2011,08,16,10,07,18.00
2011,08,16,10,08,18.10
2011,08,16,10,09,18.20
2011,08,16,10,10,18.10
2011,08,16,10,11,17.90
2011,08,16,10,12,17.70
2011,08,16,10,13,17.50
2011,08,16,10,14,17.30
2011,08,16,10,15,17.10
2011,08,16,10,16,17.00
2011,08,16,10,17,17.00
2011,08,16,10,18,17.00
2011,08,16,10,19,17.10
2011,08,16,10,20,17.20
2011,08,16,10,21,17.30
2011,08,16,10,22,17.40
2011,08,16,10,23,17.40
2011,08,16,10,24,17.30
2011,08,16,10,25,17.30
2011,08,16,10,26,17.30
2011,08,16,10,27,17.30
2011,08,16,10,28,17.30
2011,08,16,10,29,17.40
2011,08,16,10,30,17.50
2011,08,16,10,31,17.50
2011,08,16,10,32,17.50
2011,08,16,10,33,17.70
2011,08,16,10,34,17.80
2011,08,16,10,35,17.90
2011,08,16,10,36,18.10
2011,08,16,10,37,18.20
2011,08,16,10,38,18.40
2011,08,16,10,39,18.40
2011,08,16,10,40,18.50
2011,08,16,10,41,18.70
2011,08,16,10,42,18.80
2011,08,16,10,43,18.70
2011,08,16,10,44,18.60
2011,08,16,10,45,18.40
2011,08,16,10,46,18.50
2011,08,16,10,47,18.60
2011,08,16,10,48,18.80
2011,08,16,10,49,18.90
2011,08,16,10,50,19.00
2011,08,16,10,51,19.10
2011,08,16,10,52,19.10
2011,08,16,10,53,19.20
2011,08,16,10,54,19.40
2011,08,16,10,55,19.50
2011,08,16,10,56,19.50
2011,08,16,10,57,19.30
2011,08,16,10,58,19.20
2011,08,16,10,59,19.00
2011,08,16,11,00,18.90
2011,08,16,11,01,18.90
2011,08,16,11,02,18.80
2011,08,16,11,03,18.70
2011,08,16,11,04,18.70
2011,08,16,11,05,18.70
2011,08,16,11,06,18.60
2011,08,16,11,07,18.50
2011,08,16,11,08,18.50
2011,08,16,11,09,18.40
2011,08,16,11,10,18.40
2011,08,16,11,11,18.40
2011,08,16,11,12,18.40
2011,08,16,11,13,18.40
2011,08,16,11,14,18.30
2011,08,16,11,15,18.20
2011,08,16,11,16,18.00
2011,08,16,11,17,17.70
2011,08,16,11,18,17.50
2011,08,16,11,19,17.50
2011,08,16,11,20,17.50
2011,08,16,11,21,17.50
2011,08,16,11,22,17.50
2011,08,16,11,23,17.50
2011,08,16,11,24,17.30
2011,08,16,11,25,17.20
2011,08,16,11,26,17.20
2011,08,16,11,27,17.30
2011,08,16,11,28,17.20
2011,08,16,11,29,17.10
2011,08,16,11,30,17.20
2011,08,16,11,31,17.20
2011,08,16,11,32,17.10
2011,08,16,11,33,17.10
2011,08,16,11,34,17.00
2011,08,16,11,35,16.80
2011,08,16,11,36,16.70
2011,08,16,11,37,16.80
2011,08,16,11,38,16.80
2011,08,16,11,39,16.70
2011,08,16,11,40,16.70
2011,08,16,11,41,16.70
2011,08,16,11,42,16.80
2011,08,16,11,43,16.80
2011,08,16,11,44,16.80
2011,08,16,11,45,16.80
2011,08,16,11,46,16.70
2011,08,16,11,47,16.60
2011,08,16,11,48,16.40
2011,08,16,11,49,16.30
2011,08,16,11,50,16.30
2011,08,16,11,51,16.30
2011,08,16,11,52,16.30
2011,08,16,11,53,16.40
2011,08,16,11,54,16.50
2011,08,16,11,55,16.70
2011,08,16,11,56,16.70
2011,08,16,11,57,16.80
2011,08,16,11,58,16.90
2011,08,16,11,59,17.10
2011,08,16,12,00,17.10
2011,08,16,12,01,17.10
2011,08,16,12,02,17.10
2011,08,16,12,03,17.20
2011,08,16,12,04,17.20
2011,08,16,12,05,17.30
2011,08,16,12,06,17.30
2011,08,16,12,07,17.40
2011,08,16,12,08,17.50
2011,08,16,12,09,17.60
2011,08,16,12,10,17.70
2011,08,16,12,11,17.80
2011,08,16,12,12,17.70
2011,08,16,12,13,17.60
2011,08,16,12,14,17.60
2011,08,16,12,15,17.50
2011,08,16,12,16,17.40
2011,08,16,12,17,17.40
2011,08,16,12,18,17.40
2011,08,16,12,19,17.40
2011,08,16,12,20,17.50
2011,08,16,12,21,17.60
2011,08,16,12,22,17.70
2011,08,16,12,23,17.80
2011,08,16,12,24,17.70
2011,08,16,12,25,17.60
2011,08,16,12,26,17.70
2011,08,16,12,27,17.70
2011,08,16,12,28,17.70
2011,08,16,12,29,17.70
2011,08,16,12,30,17.70
2011,08,16,12,31,17.70
2011,08,16,12,32,17.70
2011,08,16,12,33,17.70
2011,08,16,12,34,17.60
2011,08,16,12,35,17.50
2011,08,16,12,36,17.50
2011,08,16,12,37,17.50
2011,08,16,12,38,17.50
2011,08,16,12,39,17.60
2011,08,16,12,40,17.60
2011,08,16,12,41,17.60
2011,08,16,12,42,17.50
2011,08,16,12,43,17.50
2011,08,16,12,44,17.70
2011,08,16,12,45,17.90
2011,08,16,12,46,17.90
2011,08,16,12,47,17.90
2011,08,16,12,48,17.90
2011,08,16,12,49,17.90
2011,08,16,12,50,18.00
2011,08,16,12,51,18.10
2011,08,16,12,52,18.20
2011,08,16,12,53,18.20
2011,08,16,12,54,18.10
2011,08,16,12,55,18.00
2011,08,16,12,56,17.90
2011,08,16,12,57,18.00
2011,08,16,12,58,18.10
2011,08,16,12,59,18.10
2011,08,16,13,00,18.00
2011,08,16,13,01,17.90
2011,08,16,13,02,17.90
2011,08,16,13,03,18.00
2011,08,16,13,04,18.10
2011,08,16,13,05,18.30
2011,08,16,13,06,18.60
2011,08,16,13,07,18.60
2011,08,16,13,08,18.50
2011,08,16,13,09,18.40
2011,08,16,13,10,18.30
2011,08,16,13,11,18.30
2011,08,16,13,12,18.50
2011,08,16,13,13,18.60
2011,08,16,13,14,18.80
2011,08,16,13,15,18.90
2011,08,16,13,16,18.90
2011,08,16,13,17,18.90
2011,08,16,13,18,18.90
2011,08,16,13,19,18.90
2011,08,16,13,20,19.00
2011,08,16,13,21,19.10
2011,08,16,13,22,19.20
2011,08,16,13,23,19.20
2011,08,16,13,24,19.20
2011,08,16,13,25,19.30
2011,08,16,13,26,19.40
2011,08,16,13,27,19.50
2011,08,16,13,28,19.60
2011,08,16,13,29,19.60
2011,08,16,13,30,19.60
2011,08,16,13,31,19.50
2011,08,16,13,32,19.50
2011,08,16,13,33,19.50
2011,08,16,13,34,19.50
2011,08,16,13,35,19.50
2011,08,16,13,36,19.40
2011,08,16,13,37,19.20
2011,08,16,13,38,19.10
2011,08,16,13,39,19.10
2011,08,16,13,40,19.10
2011,08,16,13,41,19.00
2011,08,16,13,42,18.90
2011,08,16,13,43,18.80
2011,08,16,13,44,18.80
2011,08,16,13,45,18.70
2011,08,16,13,46,18.80
2011,08,16,13,47,18.80
2011,08,16,13,48,18.70
2011,08,16,13,49,18.70
2011,08,16,13,50,18.90
2011,08,16,13,51,18.90
2011,08,16,13,52,18.90
2011,08,16,13,53,18.80
2011,08,16,13,54,18.90
2011,08,16,13,55,18.80
2011,08,16,13,56,18.80
2011,08,16,13,57,18.80
2011,08,16,13,58,19.00
2011,08,16,13,59,19.10
2011,08,16,14,00,19.20
2011,08,16,14,01,19.30
2011,08,16,14,02,19.40
2011,08,16,14,03,19.50
2011,08,16,14,04,19.70
2011,08,16,14,05,19.90
2011,08,16,14,06,20.10
2011,08,16,14,07,20.20
2011,08,16,14,08,20.30
2011,08,16,14,09,20.30
2011,08,16,14,10,20.30
2011,08,16,14,11,20.20
2011,08,16,14,12,20.20
2011,08,16,14,13,20.00
2011,08,16,14,14,19.90
2011,08,16,14,15,19.80
2011,08,16,14,16,19.70
2011,08,16,14,17,19.60
2011,08,16,14,18,19.60
2011,08,16,14,19,19.60
2011,08,16,14,20,19.60
2011,08,16,14,21,19.40
2011,08,16,14,22,19.20
2011,08,16,14,23,19.30
2011,08,16,14,24,19.40
2011,08,16,14,25,19.40
2011,08,16,14,26,19.40
2011,08,16,14,27,19.50
2011,08,16,14,28,19.60
2011,08,16,14,29,19.60
2011,08,16,14,30,19.70
2011,08,16,14,31,19.70
2011,08,16,14,32,19.70
2011,08,16,14,33,19.70
2011,08,16,14,34,19.60
2011,08,16,14,35,19.60
2011,08,16,14,36,19.70
2011,08,16,14,37,19.80
2011,08,16,14,38,19.80
2011,08,16,14,39,19.90
2011,08,16,14,40,19.80
2011,08,16,14,41,19.70
2011,08,16,14,42,19.60
2011,08,16,14,43,19.70
2011,08,16,14,44,19.80
2011,08,16,14,45,20.00
2011,08,16,14,46,20.20
2011,08,16,14,47,20.40
2011,08,16,14,48,20.40
2011,08,16,14,49,20.40
2011,08,16,14,50,20.20
2011,08,16,14,51,20.10
2011,08,16,14,52,20.10
2011,08,16,14,53,20.10
2011,08,16,14,54,20.10
2011,08,16,14,55,20.00
2011,08,16,14,56,19.90
2011,08,16,14,57,19.90
2011,08,16,14,58,19.90
2011,08,16,14,59,19.90
2011,08,16,15,00,19.80
2011,08,16,15,01,19.70
2011,08,16,15,02,19.60
2011,08,16,15,03,19.60
2011,08,16,15,04,19.50
2011,08,16,15,05,19.60
2011,08,16,15,06,19.50
2011,08,16,15,07,19.50
2011,08,16,15,08,19.50
2011,08,16,15,09,19.50
2011,08,16,15,10,19.60
2011,08,16,15,11,19.50
2011,08,16,15,12,19.50
2011,08,16,15,13,19.60
2011,08,16,15,14,19.60
2011,08,16,15,15,19.70
2011,08,16,15,16,19.70
2011,08,16,15,17,19.70
2011,08,16,15,18,19.70
2011,08,16,15,19,19.80
2011,08,16,15,20,19.90
2011,08,16,15,21,20.10
2011,08,16,15,22,20.20
2011,08,16,15,23,20.40
2011,08,16,15,24,20.50
2011,08,16,15,25,20.50
2011,08,16,15,26,20.60
2011,08,16,15,27,20.60
2011,08,16,15,28,20.70
2011,08,16,15,29,20.80
2011,08,16,15,30,20.80
2011,08,16,15,31,20.90
2011,08,16,15,32,21.00
2011,08,16,15,33,21.00
2011,08,16,15,34,20.80
2011,08,16,15,35,20.70
2011,08,16,15,36,20.60
2011,08,16,15,37,20.60
2011,08,16,15,38,20.70
2011,08,16,15,39,20.80
2011,08,16,15,40,20.90
2011,08,16,15,41,21.00
2011,08,16,15,42,21.00
2011,08,16,15,43,21.10
2011,08,16,15,44,21.20
2011,08,16,15,45,21.40
2011,08,16,15,46,21.50
2011,08,16,15,47,21.60
2011,08,16,15,48,21.60
2011,08,16,15,49,21.60
2011,08,16,15,50,21.60
2011,08,16,15,51,21.60
2011,08,16,15,52,21.60
2011,08,16,15,53,21.50
2011,08,16,15,54,21.40
2011,08,16,15,55,21.20
2011,08,16,15,56,21.00
2011,08,16,15,57,21.00
2011,08,16,15,58,21.00
2011,08,16,15,59,21.00
2011,08,16,16,00,21.10
2011,08,16,16,01,21.10
2011,08,16,16,02,21.20
2011,08,16,16,03,21.30
2011,08,16,16,04,21.30
2011,08,16,16,05,21.40
2011,08,16,16,06,21.40
2011,08,16,16,07,21.40
2011,08,16,16,08,21.40
2011,08,16,16,09,21.50
2011,08,16,16,10,21.60
2011,08,16,16,11,21.60
2011,08,16,16,12,21.70
2011,08,16,16,13,21.60
2011,08,16,16,14,21.50
2011,08,16,16,15,21.40
2011,08,16,16,16,21.30
2011,08,16,16,17,21.30
2011,08,16,16,18,21.30
2011,08,16,16,19,21.30
2011,08,16,16,20,21.30
2011,08,16,16,21,21.30
2011,08,16,16,22,21.30
2011,08,16,16,23,21.30
2011,08,16,16,24,21.30
2011,08,16,16,25,21.20
2011,08,16,16,26,21.20
2011,08,16,16,27,21.20
2011,08,16,16,28,21.30
2011,08,16,16,29,21.30
2011,08,16,16,30,21.30
2011,08,16,16,31,21.20
2011,08,16,16,32,21.10
2011,08,16,16,33,21.10
2011,08,16,16,34,21.10
2011,08,16,16,35,21.20
2011,08,16,16,36,21.20
2011,08,16,16,37,21.20
2011,08,16,16,38,21.20
2011,08,16,16,39,21.20
2011,08,16,16,40,21.10
2011,08,16,16,41,21.10
2011,08,16,16,42,21.20
2011,08,16,16,43,21.20
2011,08,16,16,44,21.10
2011,08,16,16,45,21.00
2011,08,16,16,46,21.00
2011,08,16,16,47,20.90
2011,08,16,16,48,20.80
2011,08,16,16,49,20.80
2011,08,16,16,50,20.80
2011,08,16,16,51,20.70
2011,08,16,16,52,20.80
2011,08,16,16,53,20.80
2011,08,16,16,54,20.80
2011,08,16,16,55,20.80
2011,08,16,16,56,20.80
2011,08,16,16,57,20.90
2011,08,16,16,58,20.90
2011,08,16,16,59,21.00
2011,08,16,17,00,21.00
2011,08,16,17,01,21.00
2011,08,16,17,02,21.10
2011,08,16,17,03,21.00
2011,08,16,17,04,20.90
2011,08,16,17,05,20.80
2011,08,16,17,06,20.70
2011,08,16,17,07,20.60
2011,08,16,17,08,20.60
2011,08,16,17,09,20.60
2011,08,16,17,10,20.60
2011,08,16,17,11,20.60
2011,08,16,17,12,20.70
2011,08,16,17,13,20.80
2011,08,16,17,14,20.80
2011,08,16,17,15,20.80
2011,08,16,17,16,20.80
2011,08,16,17,17,20.70
2011,08,16,17,18,20.80
2011,08,16,17,19,20.80
2011,08,16,17,20,20.90
2011,08,16,17,21,20.80
2011,08,16,17,22,20.80
2011,08,16,17,23,20.70
2011,08,16,17,24,20.70
2011,08,16,17,25,20.60
2011,08,16,17,26,20.60
2011,08,16,17,27,20.60
2011,08,16,17,28,20.60